KZ1X Weather Reports


time (UTC)temp
C
wind
direction
speed
KPH
gust
KPH
rain 1hr
cm
rain 24hr
cm
rain mn
cm
humidity
%
barometer
mb
20260505081542 13 0 0.0 0.0 0.00 0.00 0.00 79 1015.5
20260505080045 13 0 0.0 0.0 0.00 0.00 0.00 79 1015.5
20260505074535 13 0 0.0 0.0 0.00 0.00 0.00 79 1015.4
20260505073050 14 0 0.0 0.0 0.00 0.00 0.00 77 1015.3
20260505071544 15 0 0.0 0.0 0.00 0.00 0.00 77 1015.2
20260505070038 15 0 0.0 0.0 0.00 0.00 0.00 76 1015.2
20260505064537 15 0 0.0 0.0 0.00 0.00 0.00 74 1015.1
20260505063046 16 0 0.0 0.0 0.00 0.00 0.00 73 1015.1
20260505061545 16 0 0.0 0.0 0.00 0.00 0.00 73 1015.1
20260505060042 16 0 0.0 0.0 0.00 0.00 0.00 72 1015.1
20260505054609 16 0 0.0 0.0 0.00 0.00 0.00 71 1015.0
20260505053045 16 0 0.0 0.0 0.00 0.00 0.00 71 1015.0
20260505051544 16 0 0.0 0.0 0.00 0.00 0.00 70 1015.3
20260505041549 16 0 0.0 0.0 0.00 0.00 0.00 69 1015.3
20260505040042 16 0 0.0 0.0 0.00 0.00 0.00 68 1015.3
20260505034544 17 0 0.0 0.0 0.00 0.00 0.00 66 1015.3
20260505033041 17 0 0.0 0.0 0.00 0.00 0.00 64 1015.4
20260505031542 17 0 0.0 0.0 0.00 0.00 0.00 63 1015.3
20260505030053 17 0 0.0 0.0 0.00 0.00 0.00 61 1015.3
20260505024537 17 0 0.0 0.0 0.00 0.00 0.00 61 1015.2
20260505023040 17 0 0.0 0.0 0.00 0.00 0.00 59 1015.1
20260505021549 17 0 0.0 0.0 0.00 0.00 0.00 58 1015.0
20260505020052 17 0 0.0 0.0 0.00 0.00 0.00 60 1015.0
20260505014540 17 0 0.0 0.0 0.00 0.00 0.00 61 1014.8
20260505013037 16 0 0.0 0.0 0.00 0.00 0.00 61 1014.6
20260505011537 17 0 0.0 0.0 0.00 0.00 0.00 59 1014.4
20260505010059 17 0 0.0 0.0 0.00 0.00 0.00 58 1014.2
20260505004545 18 0 0.0 0.0 0.00 0.00 0.00 54 1014.0
20260505003048 18 0 0.0 0.0 0.00 0.00 0.00 53 1013.8
20260505001541 19 0 0.0 0.0 0.00 0.00 0.00 50 1013.7
20260505000053 20 0 0.0 0.0 0.00 0.00 0.00 48 1013.6
20260504234545 21 0 0.0 0.0 0.00 0.00 0.00 46 1013.4
20260504233049 21 0 0.0 0.0 0.00 0.00 0.00 44 1013.4
20260504231540 22 0 0.0 0.0 0.00 0.00 0.00 43 1013.4
20260504230046 22 0 0.0 1.6 0.00 0.00 0.00 45 1013.4
20260504224550 22 0 0.0 1.6 0.00 0.00 0.00 44 1013.3
20260504223042 23 0 0.0 3.2 0.00 0.00 0.00 43 1013.4
20260504221542 23 0 0.0 3.2 0.00 0.00 0.00 41 1013.3
20260504220040 23 271 0.0 1.6 0.00 0.00 0.00 40 1013.4
20260504214543 24 293 0.0 1.6 0.00 0.00 0.00 40 1013.4
20260504213034 25 238 0.0 3.2 0.00 0.00 0.00 39 1013.4
20260504211542 25 0 0.0 3.2 0.00 0.00 0.00 40 1013.4
20260504210055 25 158 0.0 3.2 0.00 0.00 0.00 37 1013.3
20260504204546 26 233 0.0 3.2 0.00 0.00 0.00 37 1013.3
20260504203042 26 0 1.6 4.8 0.00 0.00 0.00 34 1013.6
20260504201547 26 333 1.6 4.8 0.00 0.00 0.00 33 1013.7
20260504200051 26 278 0.0 3.2 0.00 0.00 0.00 33 1013.8
20260504194539 26 131 0.0 3.2 0.00 0.00 0.00 35 1014.1
20260504193042 26 243 1.6 4.8 0.00 0.00 0.00 34 1014.2
20260504191538 26 0 0.0 4.8 0.00 0.00 0.00 34 1014.4
20260504190042 26 0 1.6 4.8 0.00 0.00 0.00 36 1014.6
20260504184542 26 0 0.0 4.8 0.00 0.00 0.00 33 1014.8
20260504183041 26 0 0.0 3.2 0.00 0.00 0.00 32 1015.0
20260504181538 26 110 1.6 4.8 0.00 0.00 0.00 33 1015.3
20260504180037 26 282 0.0 3.2 0.00 0.00 0.00 34 1015.2
20260504174532 25 138 0.0 3.2 0.00 0.00 0.00 35 1015.4
20260504173042 25 92 0.0 4.8 0.00 0.00 0.00 33 1015.5
20260504171538 25 0 0.0 3.2 0.00 0.00 0.00 37 1015.4